| time (UTC) | temp C | wind direction | speed KPH | gust KPH | rain 1hr cm | rain 24hr cm | rain mn cm | humidity % | barometer mb |
| 20260507221547 | 16 | 253 | 6.4 | 17.7 | 0.00 | 0.28 | 0.13 | 31 | 1005.6 |
| 20260507221033 | 16 | 286 | 0.0 | 12.9 | 0.00 | 0.28 | 0.13 | 36 | 1005.6 |
| 20260507220530 | 16 | 55 | 1.6 | 17.7 | 0.00 | 0.28 | 0.13 | 31 | 1005.7 |
| 20260507220046 | 16 | 220 | 4.8 | 17.7 | 0.00 | 0.28 | 0.13 | 31 | 1005.7 |
| 20260507215534 | 16 | 327 | 6.4 | 17.7 | 0.00 | 0.30 | 0.13 | 30 | 1005.7 |
| 20260507215032 | 16 | 294 | 3.2 | 17.7 | 0.00 | 0.30 | 0.13 | 32 | 1005.6 |
| 20260507214551 | 16 | 217 | 1.6 | 24.1 | 0.00 | 0.30 | 0.13 | 30 | 1005.7 |
| 20260507214030 | 16 | 273 | 6.4 | 24.1 | 0.00 | 0.30 | 0.13 | 30 | 1005.6 |
| 20260507213530 | 16 | 178 | 4.8 | 19.3 | 0.00 | 0.30 | 0.13 | 30 | 1005.5 |
| 20260507213042 | 16 | 326 | 6.4 | 16.1 | 0.00 | 0.30 | 0.13 | 31 | 1005.4 |
| 20260507212530 | 16 | 255 | 3.2 | 17.7 | 0.00 | 0.30 | 0.13 | 30 | 1005.4 |
| 20260507212031 | 16 | 288 | 3.2 | 19.3 | 0.00 | 0.30 | 0.13 | 31 | 1005.5 |
| 20260507211545 | 17 | 344 | 4.8 | 19.3 | 0.00 | 0.30 | 0.13 | 31 | 1005.4 |
| 20260507211031 | 17 | 284 | 1.6 | 14.5 | 0.00 | 0.30 | 0.13 | 30 | 1005.4 |
| 20260507210530 | 16 | 281 | 3.2 | 17.7 | 0.00 | 0.30 | 0.13 | 31 | 1005.4 |
| 20260507210046 | 17 | 311 | 3.2 | 20.9 | 0.00 | 0.30 | 0.13 | 32 | 1005.3 |
| 20260507205536 | 17 | 331 | 1.6 | 20.9 | 0.00 | 0.53 | 0.13 | 31 | 1005.3 |
| 20260507205034 | 17 | 292 | 6.4 | 19.3 | 0.00 | 0.53 | 0.13 | 30 | 1005.3 |
| 20260507204549 | 17 | 245 | 4.8 | 19.3 | 0.00 | 0.53 | 0.13 | 31 | 1005.3 |
| 20260507204031 | 17 | 292 | 6.4 | 19.3 | 0.00 | 0.53 | 0.13 | 33 | 1005.3 |
| 20260507203533 | 17 | 235 | 4.8 | 17.7 | 0.00 | 0.53 | 0.13 | 31 | 1005.3 |
| 20260507203045 | 17 | 297 | 6.4 | 17.7 | 0.00 | 0.53 | 0.13 | 31 | 1005.3 |
| 20260507202534 | 17 | 254 | 4.8 | 22.5 | 0.00 | 0.53 | 0.13 | 31 | 1005.3 |
| 20260507202038 | 17 | 342 | 3.2 | 22.5 | 0.00 | 0.53 | 0.13 | 32 | 1005.3 |
| 20260507201552 | 16 | 360 | 8.0 | 22.5 | 0.00 | 0.53 | 0.13 | 31 | 1005.3 |
| 20260507201034 | 16 | 360 | 4.8 | 22.5 | 0.00 | 0.53 | 0.13 | 32 | 1005.4 |
| 20260507200533 | 17 | 224 | 6.4 | 22.5 | 0.00 | 0.53 | 0.13 | 31 | 1005.4 |
| 20260507200054 | 17 | 197 | 4.8 | 25.7 | 0.00 | 0.53 | 0.13 | 31 | 1005.5 |
| 20260507195532 | 17 | 260 | 6.4 | 25.7 | 0.00 | 0.61 | 0.13 | 30 | 1005.5 |
| 20260507195034 | 17 | 360 | 11.3 | 25.7 | 0.00 | 0.61 | 0.13 | 29 | 1005.5 |
| 20260507194541 | 17 | 267 | 1.6 | 25.7 | 0.00 | 0.61 | 0.13 | 29 | 1005.5 |
| 20260507194032 | 17 | 300 | 3.2 | 16.1 | 0.00 | 0.61 | 0.13 | 32 | 1005.6 |
| 20260507193534 | 17 | 340 | 3.2 | 12.9 | 0.00 | 0.61 | 0.13 | 30 | 1005.5 |
| 20260507193051 | 17 | 0 | 1.6 | 24.1 | 0.00 | 0.61 | 0.13 | 32 | 1005.6 |
| 20260507192531 | 17 | 178 | 6.4 | 24.1 | 0.00 | 0.61 | 0.13 | 32 | 1005.7 |
| 20260507192031 | 17 | 360 | 6.4 | 19.3 | 0.00 | 0.61 | 0.13 | 30 | 1005.6 |
| 20260507191546 | 17 | 183 | 6.4 | 19.3 | 0.00 | 0.61 | 0.13 | 31 | 1005.7 |
| 20260507191030 | 17 | 249 | 1.6 | 12.9 | 0.00 | 0.61 | 0.13 | 29 | 1005.7 |
| 20260507190531 | 17 | 13 | 3.2 | 14.5 | 0.00 | 0.61 | 0.13 | 31 | 1005.7 |
| 20260507190050 | 17 | 306 | 1.6 | 24.1 | 0.00 | 0.61 | 0.13 | 32 | 1005.8 |
| 20260507185531 | 17 | 215 | 3.2 | 24.1 | 0.00 | 0.61 | 0.13 | 30 | 1005.8 |
| 20260507185033 | 17 | 328 | 1.6 | 17.7 | 0.00 | 0.61 | 0.13 | 32 | 1005.8 |
| 20260507184543 | 18 | 211 | 3.2 | 17.7 | 0.00 | 0.61 | 0.13 | 29 | 1005.9 |
| 20260507184032 | 17 | 233 | 4.8 | 17.7 | 0.00 | 0.61 | 0.13 | 30 | 1005.8 |
| 20260507183531 | 17 | 360 | 1.6 | 14.5 | 0.00 | 0.61 | 0.13 | 34 | 1005.9 |
| 20260507183042 | 17 | 360 | 3.2 | 19.3 | 0.00 | 0.61 | 0.13 | 32 | 1006.0 |
| 20260507182531 | 17 | 360 | 8.0 | 25.7 | 0.00 | 0.61 | 0.13 | 32 | 1006.0 |
| 20260507182030 | 17 | 360 | 6.4 | 25.7 | 0.00 | 0.61 | 0.13 | 31 | 1006.0 |
| 20260507181543 | 17 | 360 | 3.2 | 20.9 | 0.00 | 0.61 | 0.13 | 30 | 1006.1 |
| 20260507181030 | 17 | 360 | 3.2 | 19.3 | 0.00 | 0.61 | 0.13 | 31 | 1006.2 |
| 20260507180535 | 16 | 360 | 9.7 | 19.3 | 0.00 | 0.61 | 0.13 | 33 | 1006.0 |
| 20260507180052 | 17 | 360 | 6.4 | 14.5 | 0.00 | 0.61 | 0.13 | 32 | 1006.2 |
| 20260507175533 | 17 | 360 | 3.2 | 14.5 | 0.00 | 0.61 | 0.13 | 33 | 1006.2 |
| 20260507175031 | 17 | 360 | 3.2 | 14.5 | 0.00 | 0.61 | 0.13 | 31 | 1006.3 |
| 20260507174555 | 17 | 360 | 4.8 | 14.5 | 0.00 | 0.61 | 0.13 | 31 | 1006.2 |
| 20260507174032 | 17 | 360 | 3.2 | 14.5 | 0.00 | 0.61 | 0.13 | 33 | 1006.2 |
| 20260507173530 | 17 | 360 | 1.6 | 14.5 | 0.00 | 0.61 | 0.13 | 35 | 1006.1 |
| 20260507173044 | 16 | 360 | 1.6 | 14.5 | 0.00 | 0.61 | 0.13 | 36 | 1006.1 |
| 20260507172532 | 16 | 360 | 4.8 | 16.1 | 0.00 | 0.61 | 0.13 | 39 | 1006.2 |
| 20260507172031 | 16 | 360 | 4.8 | 16.1 | 0.00 | 0.61 | 0.13 | 36 | 1006.3 |
| 20260507171554 | 16 | 360 | 3.2 | 17.7 | 0.00 | 0.61 | 0.13 | 38 | 1006.5 |
| 20260507171030 | 16 | 360 | 4.8 | 17.7 | 0.00 | 0.61 | 0.13 | 38 | 1006.5 |
| 20260507170533 | 16 | 360 | 8.0 | 17.7 | 0.00 | 0.61 | 0.13 | 40 | 1006.6 |
| 20260507170048 | 16 | 360 | 1.6 | 14.5 | 0.00 | 0.61 | 0.13 | 40 | 1006.6 |
| 20260507165532 | 16 | 360 | 4.8 | 20.9 | 0.00 | 0.61 | 0.13 | 41 | 1006.7 |
| 20260507165030 | 16 | 360 | 9.7 | 20.9 | 0.00 | 0.61 | 0.13 | 39 | 1006.6 |
| 20260507164541 | 16 | 360 | 6.4 | 20.9 | 0.00 | 0.61 | 0.13 | 41 | 1006.7 |
| 20260507164031 | 16 | 360 | 1.6 | 20.9 | 0.00 | 0.61 | 0.13 | 46 | 1006.8 |
| 20260507163532 | 16 | 360 | 8.0 | 22.5 | 0.00 | 0.61 | 0.13 | 45 | 1006.9 |
| 20260507163047 | 16 | 360 | 9.7 | 22.5 | 0.00 | 0.61 | 0.13 | 45 | 1006.9 |
| 20260507162531 | 16 | 360 | 6.4 | 22.5 | 0.00 | 0.61 | 0.13 | 46 | 1006.9 |
| 20260507162033 | 15 | 360 | 9.7 | 22.5 | 0.00 | 0.61 | 0.13 | 46 | 1006.9 |
| 20260507161553 | 15 | 360 | 6.4 | 22.5 | 0.00 | 0.61 | 0.13 | 51 | 1007.0 |
| 20260507161054 | 15 | 360 | 4.8 | 20.9 | 0.00 | 0.61 | 0.13 | 52 | 1007.1 |
| 20260507160531 | 15 | 360 | 6.4 | 16.1 | 0.00 | 0.61 | 0.13 | 49 | 1007.0 |
| 20260507160044 | 15 | 360 | 6.4 | 19.3 | 0.00 | 0.61 | 0.13 | 51 | 1007.1 |
| 20260507155530 | 15 | 360 | 6.4 | 24.1 | 0.00 | 0.61 | 0.13 | 51 | 1007.1 |
| 20260507155037 | 15 | 0 | 8.0 | 25.7 | 0.00 | 0.61 | 0.13 | 50 | 1007.2 |
| 20260507154546 | 15 | 360 | 12.9 | 25.7 | 0.00 | 0.61 | 0.13 | 51 | 1007.2 |
| 20260507154034 | 15 | 360 | 9.7 | 20.9 | 0.00 | 0.61 | 0.13 | 51 | 1007.1 |
| 20260507153533 | 15 | 360 | 4.8 | 20.9 | 0.00 | 0.61 | 0.13 | 52 | 1007.1 |
| 20260507153052 | 15 | 360 | 1.6 | 17.7 | 0.00 | 0.61 | 0.13 | 57 | 1007.2 |
| 20260507152536 | 15 | 0 | 1.6 | 17.7 | 0.00 | 0.61 | 0.13 | 56 | 1007.2 |
| 20260507152031 | 15 | 360 | 6.4 | 17.7 | 0.00 | 0.61 | 0.13 | 54 | 1007.3 |
| 20260507151540 | 14 | 360 | 11.3 | 17.7 | 0.00 | 0.61 | 0.13 | 55 | 1007.3 |
| 20260507151034 | 14 | 360 | 6.4 | 17.7 | 0.00 | 0.61 | 0.13 | 55 | 1007.4 |
| 20260507150531 | 14 | 360 | 4.8 | 16.1 | 0.00 | 0.61 | 0.13 | 57 | 1007.5 |
| 20260507150052 | 14 | 360 | 4.8 | 24.1 | 0.00 | 0.61 | 0.13 | 55 | 1007.6 |
| 20260507145532 | 14 | 360 | 3.2 | 24.1 | 0.00 | 0.61 | 0.13 | 57 | 1007.6 |
| 20260507145030 | 14 | 360 | 4.8 | 16.1 | 0.00 | 0.61 | 0.13 | 56 | 1007.8 |
| 20260507144545 | 14 | 360 | 1.6 | 12.9 | 0.00 | 0.61 | 0.13 | 56 | 1007.8 |
| 20260507144031 | 15 | 360 | 1.6 | 14.5 | 0.00 | 0.61 | 0.13 | 59 | 1008.0 |
| 20260507143531 | 14 | 360 | 3.2 | 14.5 | 0.00 | 0.61 | 0.13 | 60 | 1007.9 |
| 20260507143050 | 13 | 360 | 3.2 | 14.5 | 0.00 | 0.61 | 0.13 | 55 | 1007.7 |
| 20260507142534 | 14 | 360 | 3.2 | 8.0 | 0.00 | 0.61 | 0.13 | 57 | 1007.9 |
| 20260507142034 | 13 | 360 | 3.2 | 8.0 | 0.00 | 0.61 | 0.13 | 55 | 1007.9 |
| 20260507141542 | 14 | 0 | 1.6 | 8.0 | 0.00 | 0.61 | 0.13 | 59 | 1007.9 |
| 20260507141033 | 15 | 360 | 1.6 | 12.9 | 0.00 | 0.61 | 0.13 | 54 | 1007.9 |
| 20260507140535 | 14 | 360 | 1.6 | 12.9 | 0.00 | 0.61 | 0.13 | 55 | 1007.8 |
| 20260507140046 | 15 | 360 | 1.6 | 12.9 | 0.00 | 0.61 | 0.13 | 56 | 1007.9 |
| 20260507135534 | 14 | 360 | 1.6 | 9.7 | 0.00 | 0.61 | 0.13 | 56 | 1007.8 |
| 20260507135038 | 15 | 360 | 1.6 | 12.9 | 0.00 | 0.61 | 0.13 | 55 | 1007.8 |
| 20260507134553 | 13 | 360 | 3.2 | 12.9 | 0.00 | 0.61 | 0.13 | 55 | 1007.7 |
| 20260507134031 | 14 | 360 | 1.6 | 12.9 | 0.00 | 0.61 | 0.13 | 59 | 1007.9 |
| 20260507133534 | 12 | 0 | 6.4 | 12.9 | 0.00 | 0.61 | 0.13 | 61 | 1007.9 |
| 20260507133051 | 12 | 360 | 3.2 | 14.5 | 0.00 | 0.61 | 0.13 | 61 | 1007.9 |
| 20260507132534 | 13 | 360 | 4.8 | 14.5 | 0.00 | 0.61 | 0.13 | 61 | 1008.0 |
| 20260507132031 | 13 | 360 | 6.4 | 14.5 | 0.00 | 0.61 | 0.13 | 60 | 1008.1 |
| 20260507131545 | 13 | 360 | 1.6 | 8.0 | 0.00 | 0.61 | 0.13 | 64 | 1008.2 |
| 20260507131031 | 13 | 360 | 1.6 | 12.9 | 0.00 | 0.61 | 0.13 | 65 | 1008.2 |
| 20260507130532 | 12 | 360 | 3.2 | 12.9 | 0.00 | 0.61 | 0.13 | 66 | 1008.1 |
| 20260507130057 | 13 | 360 | 0.0 | 9.7 | 0.00 | 0.61 | 0.13 | 68 | 1008.2 |
| 20260507125535 | 13 | 360 | 0.0 | 8.0 | 0.00 | 0.61 | 0.13 | 69 | 1008.3 |
| 20260507125033 | 12 | 360 | 0.0 | 14.5 | 0.00 | 0.61 | 0.13 | 71 | 1008.5 |
| 20260507124559 | 11 | 0 | 3.2 | 14.5 | 0.00 | 0.61 | 0.13 | 72 | 1008.4 |
| 20260507124034 | 11 | 360 | 1.6 | 14.5 | 0.00 | 0.61 | 0.13 | 73 | 1008.5 |
| 20260507123533 | 11 | 360 | 4.8 | 14.5 | 0.00 | 0.61 | 0.13 | 75 | 1008.4 |
| 20260507123052 | 11 | 0 | 1.6 | 4.8 | 0.00 | 0.61 | 0.13 | 77 | 1008.4 |
| 20260507122531 | 11 | 0 | 0.0 | 8.0 | 0.00 | 0.61 | 0.13 | 80 | 1008.3 |
| 20260507122034 | 10 | 0 | 0.0 | 8.0 | 0.00 | 0.61 | 0.13 | 80 | 1008.4 |
| 20260507121545 | 11 | 0 | 0.0 | 8.0 | 0.00 | 0.61 | 0.13 | 80 | 1008.4 |
| 20260507121035 | 10 | 360 | 0.0 | 8.0 | 0.00 | 0.61 | 0.13 | 83 | 1008.3 |
| 20260507120540 | 10 | 360 | 0.0 | 6.4 | 0.00 | 0.61 | 0.13 | 83 | 1008.3 |
| 20260507120048 | 10 | 0 | 1.6 | 9.7 | 0.00 | 0.61 | 0.13 | 83 | 1008.2 |
| 20260507115534 | 10 | 0 | 1.6 | 9.7 | 0.03 | 0.61 | 0.13 | 83 | 1008.4 |
| 20260507115034 | 10 | 360 | 1.6 | 9.7 | 0.03 | 0.61 | 0.13 | 84 | 1008.4 |
| 20260507114547 | 9 | 0 | 1.6 | 9.7 | 0.03 | 0.61 | 0.13 | 84 | 1008.3 |
| 20260507114035 | 9 | 0 | 0.0 | 8.0 | 0.03 | 0.61 | 0.13 | 85 | 1008.1 |
| 20260507113537 | 9 | 0 | 0.0 | 4.8 | 0.03 | 0.61 | 0.13 | 86 | 1008.0 |
| 20260507113044 | 9 | 0 | 1.6 | 4.8 | 0.03 | 0.61 | 0.13 | 86 | 1008.4 |
| 20260507112537 | 8 | 0 | 0.0 | 1.6 | 0.03 | 0.61 | 0.13 | 87 | 1008.3 |
| 20260507112034 | 8 | 0 | 0.0 | 1.6 | 0.03 | 0.61 | 0.13 | 87 | 1008.2 |
| 20260507111544 | 8 | 0 | 0.0 | 3.2 | 0.03 | 0.61 | 0.13 | 87 | 1008.2 |
| 20260507111035 | 8 | 0 | 0.0 | 3.2 | 0.03 | 0.61 | 0.13 | 88 | 1008.1 |
| 20260507110534 | 8 | 0 | 0.0 | 1.6 | 0.03 | 0.61 | 0.13 | 88 | 1007.8 |
| 20260507110042 | 8 | 0 | 0.0 | 1.6 | 0.03 | 0.61 | 0.13 | 88 | 1007.9 |
| 20260507105534 | 8 | 0 | 0.0 | 1.6 | 0.00 | 0.58 | 0.10 | 88 | 1008.2 |
| 20260507105031 | 8 | 0 | 0.0 | 4.8 | 0.00 | 0.58 | 0.10 | 88 | 1008.2 |
| 20260507104554 | 8 | 0 | 0.0 | 4.8 | 0.00 | 0.58 | 0.10 | 88 | 1008.1 |
| 20260507104037 | 8 | 360 | 0.0 | 3.2 | 0.00 | 0.58 | 0.10 | 88 | 1008.3 |
| 20260507103531 | 8 | 360 | 0.0 | 4.8 | 0.00 | 0.58 | 0.10 | 88 | 1008.0 |
| 20260507103046 | 8 | 360 | 0.0 | 4.8 | 0.00 | 0.58 | 0.10 | 88 | 1007.6 |
| 20260507102531 | 8 | 0 | 0.0 | 1.6 | 0.00 | 0.58 | 0.10 | 88 | 1007.6 |
| 20260507102031 | 8 | 0 | 0.0 | 1.6 | 0.03 | 0.58 | 0.10 | 88 | 1007.4 |
| 20260507101559 | 8 | 0 | 0.0 | 1.6 | 0.03 | 0.58 | 0.10 | 88 | 1007.4 |
| 20260507101034 | 8 | 0 | 0.0 | 6.4 | 0.03 | 0.58 | 0.10 | 88 | 1007.4 |
| 20260507100534 | 8 | 0 | 0.0 | 6.4 | 0.03 | 0.58 | 0.10 | 88 | 1007.5 |
| 20260507100054 | 8 | 0 | 1.6 | 6.4 | 0.03 | 0.58 | 0.10 | 88 | 1007.5 |
| 20260507095535 | 8 | 0 | 0.0 | 6.4 | 0.03 | 0.58 | 0.10 | 88 | 1007.2 |
| 20260507095031 | 8 | 0 | 0.0 | 6.4 | 0.03 | 0.58 | 0.10 | 88 | 1007.0 |
| 20260507094543 | 8 | 0 | 0.0 | 0.0 | 0.03 | 0.58 | 0.10 | 87 | 1007.4 |
| 20260507094034 | 8 | 0 | 0.0 | 1.6 | 0.03 | 0.58 | 0.10 | 87 | 1007.3 |
| 20260507093533 | 8 | 0 | 0.0 | 3.2 | 0.03 | 0.58 | 0.10 | 87 | 1007.4 |
| 20260507093053 | 8 | 0 | 0.0 | 3.2 | 0.03 | 0.58 | 0.10 | 87 | 1007.6 |
| 20260507092533 | 8 | 0 | 0.0 | 3.2 | 0.03 | 0.58 | 0.10 | 87 | 1007.5 |
| 20260507092038 | 8 | 0 | 0.0 | 6.4 | 0.00 | 0.56 | 0.08 | 87 | 1007.4 |
| 20260507091550 | 8 | 0 | 0.0 | 6.4 | 0.00 | 0.56 | 0.08 | 87 | 1007.4 |
| 20260507091031 | 9 | 0 | 0.0 | 4.8 | 0.00 | 0.56 | 0.08 | 87 | 1007.6 |
| 20260507090535 | 9 | 360 | 0.0 | 1.6 | 0.00 | 0.56 | 0.08 | 87 | 1007.7 |
| 20260507090049 | 9 | 0 | 0.0 | 0.0 | 0.00 | 0.56 | 0.08 | 88 | 1007.8 |
| 20260507085532 | 9 | 0 | 0.0 | 3.2 | 0.00 | 0.56 | 0.08 | 88 | 1007.7 |
| 20260507085031 | 9 | 0 | 0.0 | 8.0 | 0.00 | 0.56 | 0.08 | 88 | 1007.6 |
| 20260507084549 | 9 | 360 | 0.0 | 8.0 | 0.03 | 0.56 | 0.08 | 88 | 1007.5 |
| 20260507084033 | 9 | 360 | 0.0 | 4.8 | 0.05 | 0.56 | 0.08 | 88 | 1007.6 |
| 20260507083535 | 10 | 0 | 0.0 | 4.8 | 0.05 | 0.56 | 0.08 | 88 | 1007.4 |
| 20260507083058 | 10 | 0 | 0.0 | 4.8 | 0.05 | 0.56 | 0.08 | 88 | 1007.5 |
| 20260507082531 | 9 | 0 | 0.0 | 4.8 | 0.05 | 0.56 | 0.08 | 87 | 1007.4 |
| 20260507082031 | 10 | 0 | 0.0 | 4.8 | 0.05 | 0.56 | 0.08 | 87 | 1007.1 |
| 20260507081547 | 10 | 0 | 0.0 | 4.8 | 0.05 | 0.56 | 0.08 | 88 | 1006.9 |
| 20260507081033 | 10 | 0 | 0.0 | 4.8 | 0.05 | 0.56 | 0.08 | 87 | 1007.0 |
| 20260507080537 | 10 | 360 | 0.0 | 3.2 | 0.05 | 0.56 | 0.08 | 87 | 1007.1 |
| 20260507080042 | 10 | 0 | 0.0 | 17.7 | 0.05 | 0.56 | 0.08 | 87 | 1007.1 |
| 20260507075531 | 10 | 360 | 1.6 | 17.7 | 0.05 | 0.56 | 0.08 | 87 | 1007.4 |
| 20260507075034 | 10 | 360 | 3.2 | 9.7 | 0.05 | 0.56 | 0.08 | 87 | 1007.4 |
| 20260507074540 | 11 | 360 | 0.0 | 6.4 | 0.03 | 0.53 | 0.05 | 87 | 1007.1 |
| 20260507074032 | 11 | 0 | 0.0 | 8.0 | 0.00 | 0.51 | 0.03 | 86 | 1007.0 |
| 20260507073534 | 11 | 0 | 1.6 | 8.0 | 0.00 | 0.51 | 0.03 | 86 | 1007.4 |
| 20260507073050 | 11 | 360 | 1.6 | 8.0 | 0.00 | 0.51 | 0.03 | 85 | 1007.1 |
| 20260507072533 | 11 | 360 | 0.0 | 4.8 | 0.00 | 0.51 | 0.03 | 86 | 1006.7 |
| 20260507072038 | 11 | 0 | 0.0 | 0.0 | 0.00 | 0.51 | 0.03 | 85 | 1006.6 |
| 20260507071548 | 11 | 0 | 0.0 | 0.0 | 0.00 | 0.51 | 0.03 | 85 | 1006.5 |
| 20260507071036 | 11 | 0 | 0.0 | 0.0 | 0.00 | 0.51 | 0.03 | 85 | 1006.6 |
| 20260507070535 | 11 | 0 | 0.0 | 4.8 | 0.00 | 0.51 | 0.03 | 84 | 1006.6 |
| 20260507070047 | 11 | 0 | 0.0 | 4.8 | 0.00 | 0.51 | 0.03 | 84 | 1006.7 |
| 20260507065534 | 11 | 0 | 0.0 | 3.2 | 0.00 | 0.51 | 0.03 | 84 | 1006.5 |
| 20260507065030 | 11 | 0 | 0.0 | 6.4 | 0.00 | 0.51 | 0.03 | 84 | 1006.3 |
| 20260507064545 | 11 | 0 | 0.0 | 6.4 | 0.00 | 0.51 | 0.03 | 83 | 1006.5 |
| 20260507064031 | 11 | 0 | 1.6 | 6.4 | 0.00 | 0.51 | 0.03 | 83 | 1006.5 |
| 20260507063532 | 11 | 0 | 0.0 | 4.8 | 0.00 | 0.51 | 0.03 | 83 | 1006.5 |
| 20260507063049 | 11 | 0 | 0.0 | 6.4 | 0.00 | 0.51 | 0.03 | 83 | 1006.6 |
| 20260507062530 | 11 | 0 | 0.0 | 8.0 | 0.00 | 0.51 | 0.03 | 84 | 1006.6 |
| 20260507062030 | 11 | 0 | 0.0 | 8.0 | 0.00 | 0.51 | 0.03 | 85 | 1006.6 |
| 20260507061544 | 11 | 360 | 1.6 | 8.0 | 0.00 | 0.51 | 0.03 | 85 | 1006.6 |
| 20260507061033 | 11 | 0 | 0.0 | 6.4 | 0.00 | 0.51 | 0.03 | 86 | 1006.4 |
| 20260507060530 | 11 | 0 | 0.0 | 6.4 | 0.00 | 0.51 | 0.03 | 87 | 1006.5 |
| 20260507060044 | 11 | 0 | 0.0 | 9.7 | 0.00 | 0.51 | 0.03 | 87 | 1006.6 |
| 20260507055531 | 12 | 360 | 0.0 | 9.7 | 0.00 | 0.51 | 0.03 | 87 | 1006.6 |
| 20260507055031 | 12 | 360 | 0.0 | 6.4 | 0.03 | 0.51 | 0.03 | 87 | 1006.6 |
| 20260507054543 | 12 | 360 | 0.0 | 6.4 | 0.03 | 0.51 | 0.03 | 88 | 1006.6 |
| 20260507054031 | 12 | 0 | 0.0 | 12.9 | 0.03 | 0.51 | 0.03 | 88 | 1006.7 |
| 20260507053530 | 12 | 0 | 0.0 | 12.9 | 0.03 | 0.51 | 0.03 | 88 | 1006.9 |
| 20260507053049 | 12 | 360 | 1.6 | 9.7 | 0.03 | 0.51 | 0.03 | 88 | 1006.9 |
| 20260507052531 | 12 | 0 | 0.0 | 8.0 | 0.03 | 0.51 | 0.03 | 88 | 1006.7 |
| 20260507052031 | 12 | 360 | 1.6 | 8.0 | 0.03 | 0.51 | 0.03 | 88 | 1006.7 |
| 20260507051539 | 12 | 0 | 0.0 | 3.2 | 0.03 | 0.51 | 0.03 | 88 | 1006.8 |
| 20260507051030 | 12 | 0 | 0.0 | 3.2 | 0.03 | 0.51 | 0.03 | 88 | 1006.5 |
| 20260507050530 | 12 | 0 | 0.0 | 3.2 | 0.03 | 0.51 | 0.03 | 88 | 1006.5 |
| 20260507050045 | 12 | 0 | 0.0 | 3.2 | 0.03 | 0.51 | 0.03 | 88 | 1006.7 |
| 20260507045531 | 12 | 0 | 0.0 | 3.2 | 0.03 | 0.51 | 0.03 | 88 | 1006.9 |
| 20260507045031 | 12 | 0 | 0.0 | 6.4 | 0.00 | 0.48 | 0.00 | 88 | 1006.9 |
| 20260507044546 | 12 | 0 | 0.0 | 6.4 | 0.00 | 0.48 | 0.00 | 88 | 1006.9 |
| 20260507044032 | 12 | 360 | 0.0 | 4.8 | 0.00 | 0.48 | 0.00 | 88 | 1006.7 |
| 20260507043532 | 13 | 360 | 0.0 | 4.8 | 0.00 | 0.48 | 0.00 | 88 | 1006.7 |
| 20260507043042 | 13 | 360 | 1.6 | 9.7 | 0.00 | 0.48 | 0.00 | 88 | 1006.6 |
| 20260507042533 | 14 | 0 | 0.0 | 9.7 | 0.00 | 0.48 | 0.00 | 89 | 1006.6 |
| 20260507042030 | 14 | 360 | 1.6 | 8.0 | 0.00 | 0.48 | 0.00 | 89 | 1006.5 |
| 20260507041548 | 14 | 360 | 1.6 | 8.0 | 0.03 | 0.48 | 0.00 | 89 | 1006.6 |
| 20260507041033 | 14 | 360 | 3.2 | 9.7 | 0.03 | 0.48 | 0.00 | 89 | 1006.5 |
| 20260507040532 | 14 | 360 | 3.2 | 16.1 | 0.03 | 0.48 | 0.00 | 89 | 1006.6 |
| 20260507040045 | 14 | 360 | 3.2 | 16.1 | 0.03 | 0.48 | 0.00 | 89 | 1006.6 |
| 20260507035531 | 14 | 360 | 1.6 | 8.0 | 0.03 | 0.48 | 0.48 | 89 | 1006.7 |
| 20260507035033 | 14 | 0 | 1.6 | 8.0 | 0.03 | 0.48 | 0.48 | 89 | 1006.5 |
| 20260507034546 | 14 | 360 | 1.6 | 14.5 | 0.03 | 0.48 | 0.48 | 89 | 1006.3 |
| 20260507034031 | 14 | 360 | 1.6 | 14.5 | 0.03 | 0.48 | 0.48 | 89 | 1006.2 |
| 20260507033532 | 14 | 360 | 6.4 | 17.7 | 0.03 | 0.48 | 0.48 | 89 | 1006.1 |
| 20260507033044 | 14 | 360 | 3.2 | 19.3 | 0.03 | 0.48 | 0.48 | 89 | 1006.2 |
| 20260507032533 | 15 | 360 | 8.0 | 19.3 | 0.03 | 0.48 | 0.48 | 89 | 1006.4 |
| 20260507032030 | 15 | 360 | 4.8 | 19.3 | 0.03 | 0.48 | 0.48 | 89 | 1006.2 |
| 20260507031541 | 15 | 360 | 6.4 | 16.1 | 0.00 | 0.46 | 0.46 | 89 | 1006.2 |
| 20260507031032 | 15 | 360 | 6.4 | 16.1 | 0.00 | 0.46 | 0.46 | 89 | 1005.9 |
| 20260507030530 | 15 | 360 | 3.2 | 14.5 | 0.00 | 0.46 | 0.46 | 89 | 1005.9 |
| 20260507030046 | 15 | 360 | 4.8 | 14.5 | 0.00 | 0.46 | 0.46 | 89 | 1005.7 |
| 20260507025530 | 15 | 0 | 4.8 | 17.7 | 0.00 | 0.46 | 0.46 | 89 | 1005.6 |
| 20260507025031 | 15 | 360 | 6.4 | 17.7 | 0.00 | 0.46 | 0.46 | 89 | 1005.7 |
| 20260507024554 | 15 | 360 | 4.8 | 12.9 | 0.00 | 0.46 | 0.46 | 89 | 1005.7 |
| 20260507024031 | 15 | 360 | 6.4 | 19.3 | 0.00 | 0.46 | 0.46 | 89 | 1005.8 |
| 20260507023541 | 15 | 360 | 6.4 | 19.3 | 0.00 | 0.46 | 0.46 | 89 | 1005.7 |
| 20260507023045 | 15 | 360 | 6.4 | 19.3 | 0.00 | 0.46 | 0.46 | 89 | 1005.8 |
| 20260507022531 | 15 | 360 | 3.2 | 19.3 | 0.00 | 0.46 | 0.46 | 89 | 1005.9 |
| 20260507022031 | 15 | 360 | 6.4 | 19.3 | 0.00 | 0.46 | 0.46 | 89 | 1005.8 |
| 20260507021545 | 15 | 360 | 6.4 | 17.7 | 0.00 | 0.46 | 0.46 | 89 | 1005.9 |
| 20260507021030 | 15 | 360 | 3.2 | 17.7 | 0.00 | 0.46 | 0.46 | 89 | 1005.8 |
| 20260507020530 | 14 | 360 | 3.2 | 17.7 | 0.00 | 0.46 | 0.46 | 89 | 1005.8 |
| 20260507020055 | 14 | 360 | 6.4 | 12.9 | 0.00 | 0.46 | 0.46 | 89 | 1005.8 |
| 20260507015531 | 14 | 360 | 3.2 | 14.5 | 0.00 | 0.46 | 0.46 | 89 | 1005.8 |
| 20260507015030 | 14 | 360 | 3.2 | 14.5 | 0.00 | 0.46 | 0.46 | 89 | 1005.9 |
| 20260507014554 | 14 | 360 | 3.2 | 12.9 | 0.00 | 0.46 | 0.46 | 89 | 1006.0 |
| 20260507014031 | 14 | 360 | 1.6 | 16.1 | 0.00 | 0.46 | 0.46 | 89 | 1006.0 |
| 20260507013529 | 14 | 360 | 1.6 | 16.1 | 0.00 | 0.46 | 0.46 | 89 | 1006.0 |
| 20260507013048 | 14 | 360 | 4.8 | 16.1 | 0.00 | 0.46 | 0.46 | 89 | 1005.9 |
| 20260507012533 | 14 | 360 | 4.8 | 19.3 | 0.00 | 0.46 | 0.46 | 89 | 1006.1 |
| 20260507012031 | 14 | 360 | 6.4 | 19.3 | 0.00 | 0.46 | 0.46 | 89 | 1006.1 |
| 20260507011544 | 14 | 360 | 4.8 | 19.3 | 0.00 | 0.46 | 0.46 | 89 | 1006.1 |
| 20260507011030 | 14 | 0 | 6.4 | 19.3 | 0.00 | 0.46 | 0.46 | 89 | 1006.1 |
| 20260507010530 | 14 | 360 | 4.8 | 19.3 | 0.00 | 0.46 | 0.46 | 89 | 1006.1 |
| 20260507010044 | 14 | 360 | 3.2 | 16.1 | 0.00 | 0.46 | 0.46 | 89 | 1006.2 |
| 20260507005532 | 14 | 360 | 4.8 | 14.5 | 0.00 | 0.46 | 0.46 | 89 | 1006.2 |
| 20260507005032 | 14 | 360 | 3.2 | 14.5 | 0.00 | 0.46 | 0.46 | 89 | 1006.2 |
| 20260507004550 | 14 | 360 | 4.8 | 17.7 | 0.00 | 0.46 | 0.46 | 89 | 1006.2 |
| 20260507004030 | 14 | 360 | 6.4 | 19.3 | 0.00 | 0.46 | 0.46 | 89 | 1006.1 |
| 20260507003530 | 14 | 360 | 4.8 | 19.3 | 0.00 | 0.46 | 0.46 | 89 | 1006.1 |
| 20260507003047 | 14 | 360 | 4.8 | 17.7 | 0.00 | 0.46 | 0.46 | 89 | 1006.2 |
| 20260507002530 | 14 | 360 | 3.2 | 17.7 | 0.03 | 0.46 | 0.46 | 89 | 1006.1 |
| 20260507002030 | 14 | 360 | 3.2 | 17.7 | 0.03 | 0.46 | 0.46 | 89 | 1006.2 |
| 20260507001547 | 14 | 360 | 6.4 | 17.7 | 0.05 | 0.46 | 0.46 | 89 | 1006.2 |
| 20260507001030 | 14 | 360 | 4.8 | 20.9 | 0.08 | 0.46 | 0.46 | 89 | 1006.2 |
| 20260507000532 | 15 | 360 | 4.8 | 20.9 | 0.10 | 0.46 | 0.46 | 89 | 1006.1 |
| 20260507000045 | 15 | 360 | 1.6 | 17.7 | 0.10 | 0.46 | 0.46 | 89 | 1006.0 |
| 20260506235532 | 15 | 360 | 4.8 | 17.7 | 0.10 | 0.46 | 0.46 | 89 | 1006.0 |
| 20260506235030 | 15 | 360 | 3.2 | 12.9 | 0.10 | 0.46 | 0.46 | 89 | 1006.0 |
| 20260506234550 | 15 | 360 | 3.2 | 17.7 | 0.10 | 0.46 | 0.46 | 89 | 1006.0 |
| 20260506234031 | 15 | 360 | 1.6 | 17.7 | 0.10 | 0.46 | 0.46 | 89 | 1006.1 |
| 20260506233531 | 15 | 0 | 1.6 | 14.5 | 0.10 | 0.46 | 0.46 | 89 | 1005.9 |
| 20260506233043 | 15 | 360 | 3.2 | 22.5 | 0.13 | 0.46 | 0.46 | 89 | 1006.0 |
| 20260506232532 | 15 | 360 | 6.4 | 22.5 | 0.10 | 0.43 | 0.43 | 88 | 1005.9 |
| 20260506232031 | 15 | 360 | 3.2 | 16.1 | 0.10 | 0.43 | 0.43 | 88 | 1005.8 |
| 20260506231551 | 15 | 360 | 3.2 | 19.3 | 0.08 | 0.41 | 0.41 | 88 | 1005.9 |
| 20260506231031 | 15 | 360 | 4.8 | 19.3 | 0.05 | 0.38 | 0.38 | 88 | 1005.9 |
| 20260506230531 | 15 | 360 | 4.8 | 14.5 | 0.03 | 0.36 | 0.36 | 88 | 1006.0 |
| 20260506230056 | 15 | 360 | 3.2 | 14.5 | 0.03 | 0.36 | 0.36 | 88 | 1005.9 |
| 20260506225535 | 15 | 360 | 3.2 | 14.5 | 0.03 | 0.36 | 0.36 | 88 | 1005.9 |
| 20260506225031 | 15 | 360 | 3.2 | 16.1 | 0.05 | 0.36 | 0.36 | 88 | 1006.0 |
| 20260506224546 | 15 | 360 | 3.2 | 16.1 | 0.05 | 0.36 | 0.36 | 88 | 1006.1 |
| 20260506224030 | 15 | 360 | 4.8 | 16.1 | 0.05 | 0.36 | 0.36 | 88 | 1006.0 |
| 20260506223534 | 15 | 360 | 3.2 | 12.9 | 0.05 | 0.36 | 0.36 | 88 | 1006.1 |
| 20260506223053 | 15 | 360 | 3.2 | 12.9 | 0.03 | 0.33 | 0.33 | 88 | 1006.2 |
| 20260506222531 | 15 | 360 | 4.8 | 12.9 | 0.03 | 0.33 | 0.33 | 87 | 1006.2 |
| 20260506222031 | 15 | 360 | 1.6 | 17.7 | 0.03 | 0.33 | 0.33 | 87 | 1006.3 |